アトラス彗星

P/2022 L3 ( ATLAS )

English version
Home page
Updated on May 13, 2024

---------------------------------------------------------------------

・ プロフィール

発見日 2022年6月12日
発見光度 17.6等
発見者 Asteroid Terrestrial-Impact Last Alert System (ATLAS) search program

・ 写真集

・ 軌道要素

Epoch 2024 Mar. 31.0 TT = JDT 2460400.5
T 2022 Oct. 29.99864 TT                                 Rudenko
q   2.4208732            (2000.0)            P               Q
n   0.05943738     Peri.   10.36308     +0.77037267     -0.61090825
a   6.5027380      Node    29.80760     +0.55555879     +0.50268641
e   0.6277148      Incl.   21.54285     +0.31285839     +0.61163509
P  16.6
>From 1103 observations 2022 June 12-2024 Feb. 17, mean residual 0".6.

・ 星図

・ 光度変化

        m1 = 8.3 + 5 logΔ + 15.0 log r

---------------------------------------------------------------------

軌道要素はM.P.E.C. 2024-D126に掲載されたものです。
星図はステラナビゲータ Ver.10 (アストロアーツ) で作成したものです。
光度グラフはComet for Windowsで作成したものです。

---------------------------------------------------------------------

Copyright(C) Seiichi Yoshida (comet@aerith.net). All rights reserved.